This is the latest recevied weather packets stored in our database for station/object KK7KHO. If no packets are shown the sender has not sent any weather packets the latest 10 day(s).
| Time | Temp. | Humidity | Pressure | Rain* | Wind** | Luminosity | Snow |
|---|---|---|---|---|---|---|---|
| 1777738961 | 13.33° C | 92% | 1017 hPa | 0 mm | - | 82 W/m² | - |
| 1777738657 | 13.33° C | 92% | 1016.8 hPa | 0 mm | - | 101 W/m² | - |
| 1777738353 | 13.89° C | 91% | 1016.9 hPa | 0 mm | - | 109 W/m² | - |
| 1777738052 | 13.89° C | 90% | 1016.8 hPa | 0 mm | - | 124 W/m² | - |
| 1777737751 | 14.44° C | 90% | 1016.7 hPa | 0 mm | - | 146 W/m² | - |
| 1777737449 | 13.89° C | 90% | 1016.8 hPa | 0 mm | - | 183 W/m² | - |
| 1777737140 | 13.89° C | 91% | 1016.9 hPa | 0 mm | - | 225 W/m² | - |
| 1777736836 | 13.33° C | 92% | 1016.9 hPa | 0 mm | - | 330 W/m² | - |
| 1777736218 | 12.78° C | 94% | 1016.8 hPa | 0 mm | - | 161 W/m² | - |
| 1777735914 | 12.78° C | 94% | 1016.9 hPa | 0 mm | - | 134 W/m² | - |
| 1777735611 | 12.78° C | 94% | 1016.6 hPa | 0 mm | - | 134 W/m² | - |
| 1777735309 | 12.78° C | 93% | 1016.7 hPa | 0 mm | - | 141 W/m² | - |
| 1777735006 | 12.78° C | 94% | 1016.6 hPa | 0 mm | - | 253 W/m² | - |
| 1777734703 | 12.78° C | 94% | 1016.7 hPa | 0 mm | - | 166 W/m² | - |
| 1777734401 | 12.78° C | 93% | 1016.8 hPa | 0 mm | - | 135 W/m² | - |
| 1777734097 | 12.78° C | 93% | 1016.6 hPa | 0 mm | - | 196 W/m² | - |
| 1777733794 | 12.22° C | 94% | 1016.4 hPa | 0 mm | - | 162 W/m² | - |
| 1777733490 | 12.22° C | 95% | 1016.4 hPa | 0 mm | - | 143 W/m² | - |
| 1777733186 | 11.67° C | 96% | 1016.4 hPa | 0 mm | - | 119 W/m² | - |
| 1777732883 | 11.11° C | 97% | 1016.1 hPa | 0 mm | - | 97 W/m² | - |
| 1777732580 | 11.11° C | 97% | 1016.3 hPa | 0 mm | - | 92 W/m² | - |
| 1777732278 | 11.11° C | 97% | 1016.3 hPa | 0 mm | - | 75 W/m² | - |
| 1777731975 | 11.11° C | 97% | 1016.5 hPa | 0 mm | - | 70 W/m² | - |
| 1777731671 | 11.11° C | 97% | 1016.4 hPa | 0 mm | - | 72 W/m² | - |
| 1777731369 | 10.56° C | 98% | 1016.5 hPa | 0 mm | - | 73 W/m² | - |
* Rain latest hour (hover to see other rain measurements)
** Current wind speed in m/s (hover to see current wind gust speed)